Location: Ash Swamp
(41.5170°N, 74.6157°W)
Time: 02:38:00
(UTC+00:00)

Nadezhda 4 Rocket - Pass Details

Date: 14 July 2020
Orbit: 950 x 991 km, 82.9° (Epoch: 14 August)

Event Time Altitude Azimuth Distance (km) Brightness Sun altitude
Rises 08:20:08 0° 354° (N) 3,711 7.6 -12.3°
Reaches altitude 10° 08:22:41 10° 357° (N) 2,761 7.0 -12.0°
Maximum altitude 08:29:01 71° 81° (E) 1,049 4.4 -11.1°
Drops below altitude 10° 08:35:18 10° 165° (SSE) 2,741 6.1 -10.2°
Sets 08:37:49 0° 168° (SSE) 3,683 6.7 -9.9°
